Terug naar catalogus

THOR ABLESTAR DEB

ActiefLEO
NORAD 644·DEBRIS·🇺🇸 United States

Gelanceerd Jun 29, 1961 vanaf Cape Canaveral Space Force Station

Loading…

Volgende Passages (komende 24 uur)

TLE

VersSource: Space-Track

Epoch: Sep 14, 2026, 13:10 UTC

1 00644U 61015GV  26257.54883500  .00000551  00000-0  76339-3 0  9994
2 00644  67.0972  91.1511 0133469  49.8661 342.4433 13.61477059209901

Volg THOR ABLESTAR DEB in realtime met AllMySat

Download on the App Store